DELTA 1 DEB, 27727

Orbit data source: Space-Track

DELTA 1 DEB, 27727 is space debris in LEO originally from a launch on Thu, 29 Jul 1976 UTC launched from the Air Force Western Test Range (AFWTR). Debris objects in space refer to the collection of defunct objects orbiting the Earth. Examples of debris include non-operational satellites, rocket bodies, and fragments generated from explosions, collisions, or faulty payload assembly.

Loading next visibility...
Identifier
27727, 1976-077FS
Orbit
LEO
Country
Flag of USUS
Related business
Manufacturer
Unknown
Mission
Spacecraft
Bus & Motor
Unknown
Mass
Unknown
Launch date (UTC)
1976-07-29 (50 years ago)
Launch vehicle
Unknown
Launch site
Air Force Western Test Range (AFWTR)
Object type
Payload
Rocket body
Debris
Shape & HBR
Unknown shape, 0.1 m
Radar Cross Section
Medium (>0.1 m² and <1 m²)

Expand to show TLE details & history
Last TLE update: 20 hours ago

TLE from 20 hours ago
0 DELTA 1 DEB
1 27727U 76077FS  26265.20907376 -.00000003  00000-0  53318-3 0  9994
2 27727 102.7104 345.7316 0412536   9.3735  13.7481 11.68388397522916
Epoch: 2026-09-22T05:01Z
TLE epoch observation values (Epoch: 2026-09-22T05:01:03.972Z)
Latitude
23.69578°
Longitude
-96.2657°
Altitude
1,500.065 km
Speed
7.257 km/s
True Right ascension
22h 40m 18s
True Declination
23° 34' 53"
Sunlit
Object was in full shadow at epoch
Visualization orbit readout
Latitude
Unknown
Longitude
Unknown
Altitude
Unknown
Speed
Unknown
Apparent Right ascension
Unknown
Apparent Declination
Unknown
Sunlit
N/A
Visualization observer readout
Local Sidereal Time
17:49:19
Azimuth
Unknown
Elevation
Unknown
Doppler factor
Unknown
Orbital elements
Apogee altitude
2,161.617 km
Perigee altitude
1,484.941 km
Semi-major axis
8,201.416 km
Eccentricity
0.04125
Inclination
102.7104°
RAAN
345.7316°
Arg. of periapsis
9.3735°
True anomaly
14.93059°
Mean anomaly
13.7481°
Eccentric anomaly
14.33325°
Mean motion
2.9222 °/min
Orbital period
123.19 mins
BSTAR
0.00053318
Loading maneuver chart data...
Computing Atmospheric mass density...
Loading historical data...
Loading historical data...
Loading historical data...
Loading historical data...
Loading historical data...
Loading historical data...
Loading historical data...

Documentation

Showing up to 5 results
|